Wind_Speed
45 45 46 47 47 46 45 44 43 43 43 43 43 43 44 44 45 45 46 47 47 48 48 48 48 49 49 49 49 50 50 51 51 52 53 53 54 55 55 56 57 57 58 58 58 58 59 59 59 59 59 59 59 59 59 59 58 58 57 57 56 55 55 54 53 52 51 50 49 48 47 47 46 46 45 44 44 43 42 42 41 41 40 40 41 41
46 46 47 47 46 45 44 43 43 43 43 43 43 43 44 44 45 45 46 46 47 47 48 48 49 49 49 49 50 50 51 51 52 52 53 54 54 55 56 56 57 57 57 58 58 58 58 58 58 58 58 58 58 58 58 57 56 56 55 54 54 53 52 51 50 49 49 48 47 46 46 45 45 44 44 43 43 42 42 41 41 41 41 40 40 40
47 47 47 47 46 44 43 43 43 43 43 43 43 43 44 44 45 45 46 46 47 47 48 48 49 49 49 49 50 50 51 51 52 53 53 54 55 55 55 56 56 56 57 57 57 57 57 57 57 57 57 57 56 56 56 55 54 54 53 52 51 50 50 49 48 48 47 46 45 45 44 44 44 43 43 43 42 42 42 41 41 41 41 40 40 40
47 47 46 45 45 44 44 44 43 43 43 43 43 44 44 44 45 46 46 47 47 48 48 48 49 49 49 50 50 50 51 51 52 53 53 54 54 55 55 55 55 55 56 56 56 56 56 55 55 55 55 54 54 54 53 53 52 51 50 50 49 48 48 47 46 46 45 45 45 44 44 43 43 43 43 42 42 42 42 41 41 40 40 40 39 39
47 46 45 44 44 44 44 44 44 44 44 44 44 44 45 45 46 46 47 47 48 48 48 48 49 49 49 50 50 50 51 51 52 52 53 53 53 54 54 54 54 54 54 54 54 54 54 53 53 53 52 52 52 51 51 50 49 49 48 48 47 47 46 46 45 45 44 44 44 43 43 43 43 42 42 42 42 41 41 41 40 40 39 38 38 38
46 45 45 44 44 45 45 45 45 45 45 45 45 45 46 46 47 47 48 48 48 48 49 49 49 49 49 50 50 50 50 51 51 52 52 52 53 53 53 53 53 52 52 52 51 51 51 51 51 50 50 50 49 49 48 48 47 47 46 46 46 45 45 44 44 44 43 43 43 42 42 42 42 42 41 41 41 41 40 40 39 39 38 38 37 37
45 44 44 45 45 45 45 45 45 45 46 46 46 46 47 47 48 48 48 49 49 49 49 50 50 50 49 50 50 50 50 50 50 51 51 51 51 51 51 51 50 50 49 49 49 48 48 48 48 48 48 47 47 47 46 46 45 45 45 45 44 44 44 43 43 43 42 42 42 42 41 41 41 41 41 41 40 40 40 39 39 38 38 37 37 37
44 44 45 45 45 46 46 46 46 46 47 47 47 47 48 48 49 49 49 50 50 50 50 50 50 50 50 49 49 49 49 49 49 50 50 50 49 49 48 48 47 47 46 46 45 45 45 45 45 45 45 45 45 45 44 44 44 44 44 43 43 43 43 42 42 42 42 41 41 41 41 41 41 41 41 40 40 40 40 40 39 39 38 38 37 37
44 45 45 45 46 46 46 47 47 47 47 48 48 48 49 49 50 50 50 51 51 51 51 51 51 51 50 50 49 49 49 48 48 48 48 47 47 46 45 45 44 43 43 42 42 42 42 43 43 43 43 43 43 43 43 43 43 42 42 42 42 42 41 41 41 41 41 41 41 41 41 41 41 41 41 41 41 41 41 40 40 40 39 39 38 38
45 45 46 46 46 46 46 47 47 48 48 48 49 49 50 50 51 52 52 52 52 52 52 52 52 51 51 50 48 47 47 47 46 45 45 45 44 44 43 42 41 40 40 40 40 40 40 41 41 41 42 42 41 41 41 41 41 41 41 41 41 40 40 40 40 41 41 41 41 41 41 41 41 41 42 42 42 41 41 41 41 40 40 39 39 38
46 46 46 47 47 47 47 47 48 48 48 49 49 50 51 51 52 52 52 53 53 53 53 53 52 51 50 49 48 46 45 44 44 43 42 41 41 40 40 39 38 38 37 37 38 38 38 39 39 40 40 40 40 40 40 40 39 39 39 39 39 39 40 40 40 40 40 41 41 41 41 41 42 42 42 42 42 42 42 42 41 41 40 40 39 39
46 46 47 47 47 47 48 48 49 49 49 50 50 51 52 53 53 53 53 54 54 53 53 53 52 50 49 47 46 45 43 42 41 40 40 39 38 37 36 36 36 35 35 35 36 36 36 37 37 38 37 37 37 38 38 38 38 38 38 38 38 38 39 39 40 40 40 40 40 41 41 41 42 42 42 42 42 42 42 42 42 41 41 40 40 39
46 47 47 47 47 48 48 49 49 50 50 51 51 52 52 53 53 53 53 54 54 53 52 52 51 49 47 45 44 42 41 40 39 38 37 36 35 34 34 34 34 33 33 33 34 34 34 34 35 35 35 35 35 35 35 35 36 36 36 36 37 37 38 38 39 39 40 40 40 40 41 41 41 42 42 42 42 42 42 42 42 42 41 41 40 39
47 47 47 47 48 48 49 49 50 51 51 52 52 52 53 53 53 53 53 53 53 52 51 50 49 48 46 43 41 39 38 37 37 36 35 34 33 32 31 32 32 32 31 31 32 32 32 32 32 33 33 32 32 33 33 33 34 34 34 35 36 36 37 37 38 38 39 39 40 40 40 41 41 41 42 42 42 42 42 43 42 42 42 41 41 40
47 47 47 48 49 49 50 50 51 51 52 52 52 52 52 52 52 52 51 51 51 50 49 48 47 45 43 40 38 36 36 35 35 33 32 32 31 30 29 30 31 30 29 29 30 30 30 30 30 31 30 30 30 30 31 31 32 32 33 33 34 35 36 36 37 38 38 39 39 39 40 40 41 41 42 42 42 42 43 43 43 42 42 42 41 41
47 48 48 49 49 50 51 51 51 51 52 52 52 51 51 50 51 50 50 49 49 48 47 45 44 42 40 37 34 32 32 33 33 32 30 30 30 29 27 28 29 29 28 27 27 28 29 28 28 28 28 28 28 29 29 30 30 31 31 32 33 34 34 35 36 37 38 38 39 39 40 40 41 41 42 42 42 43 43 43 43 43 43 42 42 41
48 49 49 50 50 50 51 51 51 51 50 50 50 49 49 48 48 48 48 47 46 45 44 42 40 38 37 35 32 30 29 30 31 31 30 28 28 27 26 27 28 28 27 26 26 27 27 27 27 27 27 27 27 28 28 29 29 30 31 32 32 33 34 35 36 37 37 38 39 39 40 41 41 42 42 43 43 43 43 43 43 43 43 43 42 42
49 49 50 50 50 50 50 50 50 49 49 48 48 48 48 47 47 46 45 44 43 42 41 39 37 35 33 32 31 29 28 28 29 30 29 28 26 26 25 26 27 27 26 25 25 26 27 27 27 27 27 27 27 28 28 29 29 30 31 32 32 33 34 35 36 37 38 39 39 40 41 41 42 42 43 43 43 44 44 44 44 43 43 43 43 42
50 50 49 49 49 50 49 48 48 47 47 47 46 46 46 45 44 43 42 41 40 38 37 36 34 32 31 29 29 28 28 28 29 29 29 27 26 25 25 26 26 26 26 26 26 27 27 27 27 27 27 27 27 28 28 29 29 30 31 32 33 33 34 35 36 37 38 39 40 40 41 42 42 43 43 43 44 44 44 44 44 44 44 43 43 42
49 49 48 48 48 48 48 47 46 45 45 45 45 44 43 43 42 40 39 38 36 35 34 33 32 30 29 28 27 27 27 27 28 29 28 27 26 25 26 26 27 27 27 27 27 28 28 28 27 27 27 27 28 28 29 29 29 30 31 31 32 33 34 35 36 37 38 39 40 40 41 42 42 43 43 44 44 44 44 44 44 44 44 44 43 43
48 47 47 46 46 45 45 45 44 44 43 43 42 42 41 40 39 37 36 34 33 33 32 31 30 29 28 27 27 27 27 27 28 29 29 28 27 26 27 28 29 29 28 28 28 29 29 29 28 28 27 28 28 28 29 29 29 30 30 31 31 32 33 34 36 37 38 39 40 41 41 42 42 43 43 44 44 44 44 44 44 44 44 44 44 43
46 45 46 45 44 43 43 43 42 41 40 40 39 39 38 37 35 34 33 32 31 30 30 29 29 28 27 27 27 26 27 28 29 30 30 30 28 27 28 29 30 30 30 30 30 30 30 30 29 29 28 28 28 28 28 28 29 29 29 30 30 31 32 33 34 36 37 38 39 40 41 42 43 43 44 44 44 44 44 44 44 44 44 44 44 44
44 43 43 43 42 41 41 40 40 39 38 37 36 35 34 33 32 31 30 30 29 29 29 28 28 27 27 27 26 26 27 28 29 31 31 31 30 29 29 30 31 32 32 32 32 32 31 31 30 29 28 28 28 27 27 27 28 28 28 29 29 30 31 31 32 34 35 36 37 39 40 41 42 43 44 44 44 44 44 44 44 44 44 44 44 44
42 41 41 40 39 39 38 37 37 36 35 34 33 32 31 30 29 29 28 28 29 29 29 28 28 27 26 26 25 25 26 27 29 31 32 32 31 30 30 31 32 33 33 33 33 33 32 31 30 29 28 27 27 27 27 27 27 27 27 28 28 28 29 30 31 32 33 34 35 36 38 39 41 42 43 43 44 44 44 44 44 44 44 44 44 44
39 38 38 37 36 36 35 34 33 32 31 31 30 29 29 28 27 27 27 28 28 29 29 29 28 27 26 25 24 24 24 26 29 31 32 32 32 31 31 32 33 34 34 34 34 33 33 31 30 28 27 27 26 26 26 26 27 27 27 27 27 27 28 29 30 31 32 32 33 34 35 36 38 39 41 42 43 43 44 44 44 44 44 45 45 45
36 35 35 34 33 33 32 31 30 29 28 28 28 27 27 27 27 26 27 27 28 28 28 28 28 27 26 25 24 23 24 26 28 30 32 33 32 32 31 32 34 34 34 34 34 33 33 31 29 28 27 26 26 26 26 26 27 27 26 26 26 26 27 28 29 30 31 32 32 33 33 34 35 36 38 39 41 42 43 44 44 44 45 45 46 46
33 32 32 31 31 30 29 28 27 26 26 26 26 26 26 26 26 26 26 27 27 27 27 27 27 26 25 24 24 23 24 26 28 31 32 33 33 32 32 33 34 35 35 35 34 33 32 31 29 28 27 26 26 26 26 27 27 27 26 26 26 25 26 26 27 29 30 31 32 32 33 33 33 33 35 36 38 40 41 43 43 44 45 45 46 47
30 29 29 28 28 27 26 25 25 24 24 24 25 25 25 26 26 27 26 26 26 26 26 26 27 26 26 25 24 24 25 26 29 31 33 33 33 33 33 33 34 35 36 36 35 33 32 30 29 28 27 27 27 27 27 27 27 27 26 25 25 25 25 25 26 27 29 30 31 32 32 32 32 32 33 33 35 36 38 40 42 43 44 45 46 47
27 26 26 25 25 24 24 23 23 22 23 23 24 24 25 25 26 26 26 26 26 26 26 26 27 27 27 27 26 25 25 26 29 32 33 34 33 33 34 34 34 35 36 36 36 34 31 30 29 29 29 28 28 28 28 28 28 27 26 25 24 24 24 25 25 26 27 29 30 31 31 32 32 32 32 32 33 33 35 36 38 40 42 44 45 46
24 23 23 23 22 22 22 21 21 21 22 22 23 24 24 24 25 25 25 25 26 26 26 26 27 28 28 28 27 26 25 27 30 33 34 34 34 34 34 34 34 35 36 37 37 35 33 31 30 30 30 30 30 29 29 29 28 27 26 25 24 24 24 24 25 26 27 28 28 29 30 31 31 31 32 32 32 32 32 33 35 37 39 40 42 43
20 20 20 20 20 20 20 20 20 21 21 22 23 23 23 24 24 24 25 25 26 26 26 27 27 28 29 29 28 27 27 28 31 33 34 34 34 34 34 34 34 34 35 37 38 38 36 33 31 31 31 31 31 30 30 30 29 28 27 26 25 24 24 25 25 26 26 27 28 28 29 29 30 31 31 31 31 31 31 32 32 34 35 37 38 39
17 17 17 17 17 18 18 19 20 20 21 21 22 22 23 23 24 24 25 25 26 27 27 27 28 28 29 29 29 28 28 29 31 33 34 34 35 35 35 34 34 34 35 36 37 38 39 38 35 33 32 32 31 31 30 30 30 29 28 27 26 25 25 25 26 26 27 27 27 28 28 29 29 30 30 30 31 31 31 31 32 32 33 34 35 35
15 15 15 16 16 17 18 18 19 20 20 21 21 22 22 23 23 24 25 26 26 27 28 28 28 28 29 29 29 29 29 29 31 33 34 35 35 35 35 35 35 35 35 36 37 38 39 39 39 37 35 33 32 32 31 31 31 30 29 28 27 26 26 26 27 27 27 27 28 28 28 28 29 29 29 29 30 30 30 30 31 32 32 33 33 33
14 14 15 15 16 17 17 18 19 19 20 20 21 22 22 23 24 25 25 26 27 28 28 28 29 29 29 29 29 29 29 29 31 33 34 35 35 35 35 35 35 35 35 36 36 37 38 39 39 39 37 35 33 32 32 32 31 30 30 29 28 28 27 28 28 28 28 28 28 28 28 28 29 29 29 29 29 29 29 30 30 31 31 32 32 32
14 14 15 16 16 17 17 18 19 19 20 20 21 22 23 23 24 25 26 27 27 28 28 29 29 29 30 30 30 29 29 29 30 32 33 34 34 35 35 35 35 36 36 36 37 37 38 39 39 39 39 37 35 33 33 33 32 31 30 30 29 29 29 29 29 29 29 29 29 29 29 29 29 29 29 29 29 29 29 29 29 30 30 31 32 32
14 15 15 16 16 17 17 18 19 19 20 21 22 23 23 24 25 25 26 27 28 28 29 29 29 30 30 30 30 30 29 29 30 30 31 32 33 34 34 34 35 35 36 37 37 38 38 39 39 39 39 39 37 35 34 33 32 32 31 30 30 30 29 30 30 30 30 30 30 30 30 30 30 29 29 29 29 29 29 29 29 29 29 30 31 31
15 15 15 16 16 17 17 18 19 20 20 21 22 23 24 25 25 26 27 27 28 28 29 29 29 29 30 30 30 29 29 29 28 29 30 31 32 33 34 34 34 35 35 36 37 38 39 39 40 40 39 39 39 38 36 34 33 32 32 31 30 30 30 30 30 30 31 31 31 30 30 30 30 30 30 30 30 30 29 29 29 29 29 30 30 30
15 15 15 16 16 17 17 18 19 20 21 22 23 23 24 25 26 26 27 27 28 28 28 28 28 29 29 28 28 28 28 27 27 27 28 30 31 32 33 33 34 34 34 35 36 37 38 39 40 40 40 40 39 38 37 36 35 34 33 32 31 30 30 30 30 31 31 32 32 31 31 31 31 31 31 30 30 30 29 29 29 29 29 29 30 30
15 15 15 16 16 17 18 19 19 20 21 22 23 24 25 25 26 27 27 27 28 28 28 28 28 28 27 27 26 26 26 26 26 27 27 29 30 31 33 33 33 34 34 34 35 36 38 39 40 41 41 41 40 39 37 37 36 36 35 33 32 30 30 30 31 31 32 32 32 32 32 32 32 32 31 31 31 30 30 29 29 29 29 29 29 29
15 15 16 16 17 18 18 19 20 21 22 23 24 25 25 26 26 27 27 27 28 28 28 28 28 27 26 26 25 25 25 25 25 26 27 28 29 31 32 33 33 33 34 34 35 36 37 38 39 40 41 41 41 40 38 37 36 36 36 36 34 32 30 30 30 31 32 32 33 33 32 32 32 32 32 31 31 30 30 29 29 28 28 29 29 29
15 15 16 17 17 18 19 20 20 21 22 23 24 25 26 26 26 26 27 27 28 28 29 29 28 27 26 25 24 24 24 24 25 25 26 27 29 30 31 32 33 33 34 34 35 35 36 38 39 39 40 41 41 40 39 37 36 36 37 37 36 34 32 31 31 31 32 33 33 33 33 33 33 32 32 32 31 30 30 29 29 28 28 28 29 29
15 15 16 17 18 19 19 20 21 22 23 24 25 25 26 26 27 27 27 27 28 28 29 28 28 27 25 23 23 23 23 24 24 25 26 27 29 30 31 32 32 33 34 35 35 36 36 37 38 39 40 40 40 40 39 38 36 36 36 37 37 36 34 32 31 32 33 33 33 33 33 33 33 33 33 32 31 30 30 29 29 28 28 28 28 28
15 16 16 17 18 19 20 21 21 22 23 25 25 26 27 27 27 28 28 28 29 29 29 29 28 26 25 23 22 22 23 23 25 26 27 28 29 30 30 31 32 33 34 35 36 36 37 38 38 39 39 40 40 40 40 38 37 36 36 36 37 37 36 34 33 33 33 33 33 33 33 33 34 33 33 32 31 30 29 29 28 28 28 28 28 28
15 16 17 17 18 19 20 21 22 23 24 25 26 26 27 28 28 29 29 29 30 30 29 29 28 27 25 24 23 23 23 24 25 26 27 28 29 30 30 31 32 33 34 35 37 37 38 38 38 39 39 40 40 40 39 39 38 37 36 36 36 37 37 36 35 34 34 33 33 32 33 33 33 33 32 32 31 30 29 28 28 27 26 26 27 27
15 16 17 18 19 20 21 22 22 23 24 25 26 26 27 28 28 29 30 30 30 30 30 29 29 27 26 26 25 25 24 24 25 26 27 28 29 30 30 31 32 33 35 36 37 38 38 38 38 38 39 39 39 39 39 39 38 37 36 36 36 36 36 36 35 35 34 33 32 32 31 32 32 32 31 30 30 29 28 27 26 26 25 25 25 25
16 17 18 19 20 21 21 22 23 24 24 25 26 26 27 28 29 29 30 30 30 30 30 30 29 28 28 27 27 27 27 26 26 26 26 27 28 29 30 31 33 34 35 36 37 38 38 38 38 39 39 39 39 38 38 38 38 38 37 36 36 36 36 35 34 34 33 33 32 31 30 30 30 30 29 29 28 27 26 25 25 24 23 23 23 23
17 18 19 20 20 21 22 23 23 24 24 25 26 26 27 28 28 29 29 30 30 30 30 29 29 28 28 28 29 29 28 28 27 26 26 26 27 28 30 31 33 34 36 37 37 38 38 38 38 38 38 39 39 38 38 37 37 37 37 37 37 36 35 34 33 32 31 31 30 29 28 28 28 27 27 26 26 24 23 22 22 21 21 21 21 21
18 19 20 21 21 22 22 23 24 24 25 25 26 26 27 28 28 29 29 29 29 29 29 29 28 28 28 28 29 29 29 29 28 27 27 27 28 29 30 31 33 35 36 37 37 38 38 38 37 37 37 38 38 38 38 37 37 37 37 37 36 35 34 33 31 30 29 28 27 26 26 26 26 25 25 25 24 23 21 20 19 19 19 19 19 19
20 20 21 22 22 22 23 23 24 24 25 25 26 26 27 27 28 28 29 29 29 29 29 29 28 28 28 28 28 29 29 29 29 29 29 29 30 31 31 33 34 35 36 37 37 38 38 37 36 35 35 36 37 38 38 38 38 37 37 36 35 34 33 31 29 28 26 26 25 24 24 23 24 24 24 24 23 22 21 19 18 17 17 17 17 18
21 22 22 23 23 23 24 24 24 25 25 26 26 26 26 27 28 28 28 29 29 29 29 29 29 29 29 29 29 29 30 30 30 30 31 31 32 33 34 35 36 37 38 38 38 38 38 37 36 34 34 34 36 38 39 39 39 38 37 36 34 33 31 30 28 26 25 24 23 23 22 22 23 23 24 24 24 23 21 20 18 17 16 17 17 17
22 23 23 24 24 24 24 25 25 25 26 26 26 26 26 27 27 28 28 28 28 28 28 28 29 29 30 30 30 30 31 31 32 32 33 33 34 35 36 37 38 39 39 40 40 40 40 39 37 35 33 32 34 36 38 39 39 39 37 35 33 31 30 28 26 25 23 23 22 22 22 22 22 23 23 24 24 24 23 21 19 18 17 17 17 17
Wind_Direction
287 288 289 289 289 289 288 288 287 287 286 286 286 286 287 288 289 290 290 291 291 291 292 292 292 293 293 293 294 294 294 294 294 294 294 294 294 293 293 293 293 293 292 292 292 292 291 291 291 291 290 290 290 289 289 289 288 288 288 288 287 287 287 287 287 286 286 285 285 284 283 283 282 282 281 280 279 278 277 276 275 274 273 272 271 270
289 289 289 289 289 289 288 287 286 286 286 286 286 287 287 288 289 289 290 291 291 291 292 292 293 293 294 294 295 295 295 295 295 295 295 294 294 294 294 293 293 293 293 292 292 292 291 291 291 290 290 290 289 289 289 288 288 288 288 287 287 287 287 287 287 286 286 285 284 283 283 282 281 281 280 279 278 278 277 276 275 274 273 272 271 271
290 290 290 289 289 288 287 287 286 286 286 287 287 288 288 289 289 290 290 290 291 291 292 293 293 294 294 295 295 296 296 296 295 295 295 295 294 294 294 293 293 293 293 292 292 291 291 291 290 290 290 289 289 288 288 288 288 288 288 288 288 287 287 287 286 286 285 285 284 283 282 281 281 280 279 278 277 277 276 275 274 274 273 272 271 271
290 290 290 289 289 288 287 287 287 287 287 288 289 289 289 290 290 290 290 291 291 292 293 293 294 295 295 296 296 296 296 296 296 295 295 295 294 294 294 293 293 293 292 292 291 291 290 290 290 289 289 288 288 288 288 288 288 288 288 288 287 287 287 286 286 285 285 284 283 283 282 281 280 279 278 278 277 276 275 275 274 273 272 272 271 270
290 290 290 290 289 288 288 288 288 289 289 290 290 291 291 291 291 291 291 292 292 293 293 294 295 296 296 297 297 297 297 296 296 295 295 294 294 294 293 293 293 292 292 291 291 290 290 289 289 289 288 288 288 288 288 288 288 288 288 287 287 287 286 286 285 285 284 284 283 282 282 281 280 279 278 277 277 276 275 274 274 273 272 272 271 270
291 291 290 290 289 288 289 289 290 290 291 291 292 292 292 292 292 292 293 293 293 294 295 295 296 297 297 297 297 297 297 296 296 295 295 294 294 294 293 293 292 292 291 291 290 290 289 289 289 288 288 288 288 288 288 288 288 288 288 288 287 287 287 286 286 285 285 284 284 283 282 281 280 280 279 278 277 276 276 275 274 274 273 272 271 271
292 291 291 290 289 290 290 291 292 292 293 293 293 293 293 293 293 294 294 294 295 295 296 297 297 298 298 298 298 298 297 297 296 296 295 295 294 294 293 293 292 292 291 291 290 290 290 289 289 289 289 289 289 289 289 289 289 289 288 288 288 288 288 287 287 286 286 285 285 284 283 282 282 281 280 279 279 278 277 277 276 275 274 273 273 272
292 291 290 290 290 291 291 292 293 294 294 294 294 295 295 295 295 295 295 296 296 297 297 298 298 298 299 299 299 299 298 298 297 296 296 295 294 294 293 293 292 292 291 291 291 290 290 290 290 289 289 289 290 290 290 290 289 289 289 289 289 289 289 288 288 287 287 286 286 285 284 284 283 283 282 281 281 280 279 279 278 277 276 275 274 273
291 290 290 290 291 292 293 293 294 295 295 296 296 296 296 296 296 296 296 297 298 298 299 299 299 299 300 300 300 299 299 298 297 296 296 295 294 293 293 292 292 291 291 291 290 290 290 290 290 289 290 290 290 290 290 290 290 290 290 289 289 289 289 289 288 288 287 287 286 286 285 285 284 284 283 283 282 282 281 280 280 279 278 277 275 274
291 291 291 292 292 293 294 295 295 296 296 297 297 297 297 298 298 298 298 298 299 299 300 300 300 300 301 301 300 300 299 299 298 297 296 295 294 293 293 292 292 291 291 291 290 290 289 289 289 289 289 289 289 289 289 289 290 289 290 290 289 289 289 289 288 288 287 287 286 286 286 285 285 285 284 284 283 282 282 281 280 280 279 277 276 275
291 291 292 293 294 295 296 296 297 297 297 298 298 298 298 299 299 300 300 300 300 301 301 301 301 302 302 302 301 301 300 299 298 296 295 295 294 294 293 293 292 292 291 291 290 289 288 288 288 288 288 288 289 289 289 289 289 289 289 289 289 289 288 288 288 287 287 287 286 286 286 285 285 285 284 284 283 283 282 281 281 280 279 278 277 275
292 293 294 294 295 296 297 298 298 298 299 299 299 300 300 300 301 302 302 302 302 302 302 302 302 303 303 303 302 301 300 299 297 296 296 295 294 294 294 293 293 292 291 290 289 287 287 287 287 287 287 288 288 288 288 289 289 289 289 289 288 288 288 288 287 287 287 286 286 286 285 285 285 284 284 283 283 282 282 281 280 280 279 278 277 276
293 294 295 296 297 298 298 299 299 300 300 301 301 302 302 302 303 303 303 303 303 303 304 304 304 304 304 304 303 302 301 300 298 297 297 296 296 295 295 294 292 291 290 289 287 286 286 286 286 287 287 287 287 288 288 288 288 288 288 288 288 287 287 287 287 287 286 286 286 285 285 284 284 284 283 283 282 282 281 281 280 280 279 278 277 276
295 296 297 298 299 299 300 300 301 301 302 302 302 303 303 303 304 304 304 304 304 304 305 305 305 305 305 305 304 303 302 301 299 299 299 298 298 297 296 295 293 291 290 289 288 286 286 287 287 287 287 287 288 288 288 288 288 288 288 288 288 287 287 287 287 287 286 286 286 285 285 284 284 283 283 282 282 282 281 281 280 280 279 278 278 276
297 298 299 300 300 301 301 302 302 302 302 303 303 304 304 304 305 305 305 305 305 305 305 305 305 305 305 305 306 305 304 303 302 301 301 301 299 298 297 295 293 292 291 290 289 288 288 288 288 288 288 289 289 289 289 289 289 289 289 288 288 288 288 287 287 287 286 286 286 285 284 284 283 283 282 282 281 281 281 280 280 280 279 279 278 277
299 300 300 301 301 302 302 302 303 303 303 304 304 305 305 305 305 305 305 305 305 306 306 306 306 306 306 306 307 307 306 305 304 303 303 302 300 299 298 296 293 292 292 292 291 290 290 290 290 290 291 291 292 292 291 291 291 291 290 290 290 289 289 288 288 287 287 286 286 285 285 284 283 283 282 282 281 281 281 280 280 280 279 279 278 278
300 301 302 302 302 302 302 303 303 304 304 305 305 305 305 305 305 306 306 306 306 307 307 307 307 307 307 308 309 310 310 307 305 304 304 301 300 300 299 297 294 294 294 294 294 293 293 293 294 294 295 296 296 296 296 295 295 294 293 292 292 291 290 290 289 288 288 287 286 286 285 284 284 283 283 282 282 281 281 280 280 280 279 279 279 278
302 302 303 303 303 303 303 304 304 305 305 305 306 306 306 306 306 306 307 307 308 308 309 309 309 309 310 310 311 313 313 309 306 304 302 300 300 300 300 298 296 296 298 298 298 297 297 298 299 300 301 301 301 300 300 299 298 297 296 295 294 293 292 291 290 289 289 288 287 286 286 285 284 284 283 283 282 282 281 281 281 280 280 279 279 278
303 303 304 303 303 304 304 305 305 306 306 306 306 306 306 306 307 307 308 309 309 310 310 311 311 312 312 312 313 314 314 310 306 303 302 301 302 303 303 301 299 300 301 302 302 301 302 302 304 305 306 305 305 304 302 301 300 299 298 297 296 294 293 292 291 290 289 288 287 286 285 285 284 283 283 282 282 282 281 281 280 280 280 279 279 279
304 304 304 304 304 305 305 306 306 306 306 306 306 306 307 307 308 309 309 310 311 311 312 312 312 313 315 315 315 315 314 310 306 304 303 303 305 308 307 305 304 304 305 306 305 305 305 306 307 308 308 308 307 305 304 303 302 300 299 298 296 295 293 292 290 289 288 287 286 285 284 283 283 282 282 281 281 281 280 280 280 279 279 279 279 279
304 304 304 304 305 305 305 306 306 306 306 306 307 307 308 309 310 310 311 312 313 312 313 313 314 315 317 317 318 318 315 312 309 307 306 306 309 311 310 308 307 307 308 308 307 307 307 308 309 310 310 309 308 306 305 304 303 302 300 299 297 295 293 291 289 288 286 285 284 283 282 282 281 280 280 280 279 279 279 279 279 278 278 278 278 278
304 304 304 304 305 305 305 306 306 306 307 307 308 308 309 311 312 312 314 314 314 313 313 314 316 317 319 320 320 320 318 314 312 309 308 309 311 312 312 310 309 309 309 309 309 309 309 310 311 312 311 311 309 308 307 306 305 304 302 300 298 295 293 291 289 287 286 284 283 282 281 280 279 278 278 277 277 277 277 277 277 277 277 277 277 277
304 304 304 304 305 305 305 306 307 307 308 309 309 310 311 313 313 314 315 315 315 314 314 316 317 319 321 322 323 322 320 316 313 311 310 310 312 313 313 311 310 310 310 310 310 310 310 311 312 313 313 312 311 310 309 308 307 305 304 302 300 298 296 294 293 290 288 286 284 282 280 278 277 276 275 275 275 275 275 275 275 275 275 275 275 275
303 304 304 305 305 306 306 307 308 309 310 311 312 313 313 314 315 315 316 316 315 315 316 318 320 322 323 324 324 323 320 316 313 311 310 310 311 313 313 312 311 311 311 311 311 311 311 313 314 315 315 314 313 312 311 310 309 307 306 305 303 302 301 299 297 295 293 290 287 285 282 279 277 275 274 273 273 273 273 273 273 273 273 273 274 273
304 305 305 306 307 307 308 310 311 312 313 314 314 314 315 315 316 316 317 317 317 317 318 319 321 323 323 324 324 322 319 315 312 310 309 309 311 313 314 313 312 312 312 312 312 312 313 314 316 316 316 316 315 314 314 312 311 309 308 307 306 305 303 302 301 299 297 295 293 290 287 283 280 277 274 273 271 271 270 271 271 271 271 271 271 271
306 306 307 308 309 310 311 313 314 315 315 315 315 315 315 316 316 317 318 317 317 318 318 319 320 321 322 323 323 323 319 315 312 310 309 310 312 314 314 313 313 312 312 312 312 313 314 316 318 318 318 318 317 317 316 315 313 312 310 309 308 306 305 303 302 301 300 299 298 296 294 291 287 282 278 275 272 271 270 269 269 269 270 270 270 270
308 309 310 311 312 313 314 316 316 317 316 316 316 316 316 316 317 318 318 318 317 318 318 319 319 320 321 322 323 323 320 316 312 310 309 310 312 314 315 314 314 314 313 313 313 314 316 318 319 319 319 319 319 318 318 317 316 315 313 312 310 308 306 303 302 301 300 300 300 300 299 297 294 290 285 280 276 273 271 270 269 269 269 269 269 269
311 312 313 314 315 315 316 317 317 317 316 316 315 315 316 316 317 317 318 318 318 318 318 319 320 320 321 322 323 323 321 317 313 310 310 312 313 315 316 316 316 315 315 314 314 315 317 319 320 321 321 321 321 321 321 320 319 318 316 314 312 309 306 303 301 299 299 299 300 300 300 300 298 295 292 288 283 279 276 273 272 271 270 270 270 270
314 314 315 315 316 317 317 317 317 316 315 315 315 315 316 316 316 317 317 318 318 319 319 320 320 320 321 321 322 323 321 317 313 311 312 313 315 317 317 318 318 318 317 315 315 315 318 320 322 322 322 323 323 324 324 323 322 320 319 316 314 310 307 304 301 299 298 298 299 299 299 299 299 298 296 293 290 286 283 279 277 275 273 272 272 272
315 315 315 315 316 316 316 316 316 315 315 315 315 315 316 316 316 317 318 318 319 319 320 320 321 320 320 320 321 322 322 319 315 313 314 315 317 318 319 319 320 319 318 318 317 317 318 321 323 324 324 324 325 325 326 325 324 322 321 318 315 312 309 305 303 301 300 299 299 299 298 298 298 298 297 296 294 292 289 286 283 280 278 276 276 275
313 313 313 314 315 315 315 316 315 315 315 315 316 316 316 317 318 318 319 319 320 320 320 321 321 320 320 321 322 323 323 321 317 315 316 317 318 319 320 320 321 321 320 320 320 320 320 321 323 324 324 325 325 326 327 327 326 325 323 320 318 315 311 308 306 304 303 302 301 300 299 298 297 296 295 295 294 293 292 290 287 285 283 282 280 280
313 313 313 314 314 315 315 315 316 316 316 316 317 317 318 318 319 320 320 320 320 320 320 320 320 320 321 322 323 324 324 322 319 317 317 318 319 319 320 321 322 322 322 322 322 321 321 322 322 323 324 325 326 327 328 328 328 327 325 322 320 317 314 312 310 309 308 306 305 303 302 300 298 296 295 294 294 293 292 291 289 288 287 286 285 284
316 316 316 316 316 316 316 316 317 317 317 318 318 318 319 320 321 321 321 321 320 320 320 320 321 321 322 322 323 324 324 323 320 318 318 319 319 320 321 322 322 322 322 322 321 321 321 321 322 322 323 324 326 328 329 329 329 328 326 324 321 319 317 315 313 312 311 310 308 307 305 303 301 299 297 296 295 293 292 291 290 289 289 289 288 288
320 319 319 319 319 319 319 319 319 319 319 320 320 320 321 321 321 321 321 320 320 320 320 321 322 322 323 323 323 324 324 323 321 320 319 320 320 321 321 322 322 322 321 321 320 320 320 320 321 322 323 324 326 328 329 329 329 328 327 325 323 320 319 317 316 315 314 312 311 309 307 305 304 302 300 298 297 295 294 292 291 291 290 290 290 290
323 323 322 322 322 322 322 322 322 322 322 322 322 322 322 322 322 321 321 320 320 320 321 322 323 323 323 323 324 324 324 323 322 320 320 320 320 320 321 321 321 321 321 320 320 320 320 320 321 322 323 323 325 327 328 329 329 328 327 325 323 322 321 319 318 317 315 314 312 310 309 307 305 303 302 300 298 297 296 295 293 292 291 291 291 290
325 325 325 325 325 325 325 325 325 324 324 323 323 323 322 322 322 321 321 321 321 321 322 323 323 324 323 323 323 324 324 323 321 320 319 319 319 319 319 320 320 320 320 320 320 321 321 321 322 322 323 324 324 326 327 328 328 328 327 325 323 322 321 320 319 317 316 314 313 311 309 308 306 304 303 301 299 298 297 296 295 294 292 291 291 290
327 327 327 328 327 328 327 327 327 326 325 324 323 323 322 322 322 321 321 321 322 322 322 323 323 323 323 322 322 322 322 321 320 319 318 318 317 318 318 319 320 320 321 321 322 322 322 322 323 323 323 324 324 325 326 327 327 327 326 324 323 322 321 320 318 317 315 314 313 311 310 308 307 305 303 302 300 299 298 297 296 295 293 292 291 290
328 329 329 329 329 329 329 329 328 327 326 325 324 323 322 322 322 322 322 322 322 322 322 321 321 321 321 320 319 319 318 317 317 317 317 317 317 317 318 319 320 321 322 323 324 323 323 323 323 324 324 324 324 324 325 326 326 326 325 323 322 322 321 320 318 317 315 314 313 312 310 309 307 306 304 303 301 300 299 298 297 295 294 292 291 290
329 329 330 330 330 330 329 329 328 327 325 324 323 323 322 322 322 322 322 322 321 320 320 319 319 319 318 317 315 314 313 313 314 315 316 317 317 318 319 320 321 322 323 324 324 324 324 324 324 324 324 324 323 324 325 325 326 325 324 322 321 321 321 320 318 317 315 314 313 312 310 309 307 305 304 303 302 301 300 299 297 295 293 292 290 290
329 329 329 330 329 329 329 328 327 326 325 324 324 323 323 323 323 323 322 321 320 318 317 317 317 316 315 314 312 310 310 311 313 315 317 317 318 319 319 321 321 322 323 323 324 324 324 323 323 323 323 323 323 323 324 325 326 325 323 322 321 321 321 320 318 316 314 313 312 311 310 308 306 305 303 302 302 301 300 299 297 295 293 291 290 289
328 328 328 329 328 328 328 327 327 326 325 325 325 324 324 324 323 322 321 319 318 317 316 315 315 314 313 311 310 309 310 311 313 315 317 318 318 319 320 320 321 322 322 322 323 323 323 323 322 322 323 322 322 322 323 325 325 325 323 322 321 320 320 319 317 315 313 312 311 310 309 307 306 304 303 302 302 301 300 299 297 295 293 292 290 289
327 327 327 327 327 327 327 327 326 326 326 326 326 326 325 324 323 321 319 317 316 315 314 313 313 312 310 309 309 309 310 312 313 315 316 318 318 319 319 320 320 321 321 322 322 322 323 322 322 322 322 322 322 322 323 324 324 324 323 321 320 319 318 318 317 315 313 312 311 310 309 307 305 304 303 302 301 301 299 298 297 295 294 292 291 289
324 325 325 325 325 326 326 326 327 327 328 328 328 327 325 324 322 321 319 317 315 314 314 313 311 310 309 308 308 309 311 312 314 315 317 318 318 319 319 320 320 321 321 322 322 322 322 322 322 322 322 322 321 322 322 323 323 323 322 321 320 319 318 318 317 315 313 312 311 310 308 306 305 304 303 302 301 300 299 297 296 295 294 293 291 289
322 322 323 324 324 325 326 327 328 329 329 329 328 327 325 324 323 321 319 318 317 315 314 313 311 310 309 309 309 310 312 314 316 316 317 318 318 319 319 320 320 320 321 322 322 322 321 321 322 322 322 321 321 321 322 322 322 322 321 321 320 319 318 318 317 315 314 312 311 309 308 306 305 304 303 303 302 301 300 298 297 295 294 292 290 289
320 321 322 323 324 325 327 328 328 329 329 329 328 326 325 323 322 321 320 319 318 316 315 313 312 311 312 312 313 314 315 316 317 317 318 318 318 319 320 320 321 321 321 321 321 321 321 321 321 321 321 321 321 321 321 321 321 321 321 320 320 318 317 317 317 316 314 313 312 311 309 307 306 306 305 305 304 303 302 300 299 297 295 292 290 288
320 321 322 323 324 326 327 328 328 329 329 329 328 326 324 324 323 322 321 320 319 318 317 315 315 315 316 317 318 319 319 320 320 319 319 319 319 319 320 321 321 321 321 320 320 320 320 321 321 321 321 320 320 320 320 321 321 321 321 321 320 319 318 318 317 317 316 315 314 313 312 310 309 309 309 308 308 307 306 305 303 301 298 294 291 287
320 321 322 323 324 325 326 327 328 329 329 328 327 326 325 324 324 323 323 322 322 321 320 319 319 320 321 322 323 323 323 324 324 323 322 321 321 321 321 321 321 321 320 320 320 320 320 320 320 321 321 320 320 320 320 320 321 321 322 322 321 320 319 319 319 318 317 317 317 317 316 315 314 314 314 314 314 314 313 312 310 307 304 299 294 289
321 321 322 323 324 325 326 326 327 328 328 328 327 326 325 325 325 325 325 325 325 324 324 324 325 325 326 327 328 328 327 327 328 328 327 325 324 323 322 321 321 320 320 319 319 319 319 319 320 320 321 320 320 320 320 321 321 322 323 322 322 321 320 320 321 321 320 321 321 321 321 321 321 321 321 321 322 323 323 322 320 316 312 306 299 293
320 321 321 322 323 324 325 325 326 326 326 327 327 327 326 326 326 327 327 327 327 328 328 329 329 330 331 331 331 331 330 330 330 330 330 329 327 325 324 323 322 320 319 319 318 318 317 317 318 320 321 322 321 321 321 321 323 323 324 324 324 323 323 323 324 324 325 325 326 326 326 326 327 327 327 327 328 330 331 332 330 327 321 314 307 300
319 320 321 321 322 323 324 324 324 324 325 325 326 327 328 328 328 328 328 329 330 331 332 332 332 333 333 333 333 332 332 331 331 331 331 330 328 327 325 324 322 321 319 318 317 317 317 317 318 320 322 324 324 323 323 323 324 325 325 326 326 325 325 326 327 328 329 330 331 332 332 332 332 332 332 331 332 335 337 338 338 336 330 322 315 308
319 320 321 321 322 323 323 323 323 323 323 324 326 328 329 330 330 330 330 331 332 333 333 334 334 334 334 334 333 332 332 331 331 331 330 330 328 327 325 324 322 321 320 319 318 318 318 318 319 320 323 325 326 325 325 325 326 326 326 327 327 327 327 328 329 331 332 333 335 336 337 338 338 338 338 337 337 339 341 343 344 342 336 328 321 316
Height
3059 3058 3056 3055 3054 3053 3052 3051 3050 3048 3047 3046 3045 3042 3041 3039 3037 3035 3033 3031 3030 3028 3027 3025 3024 3022 3021 3020 3018 3017 3015 3014 3012 3011 3010 3008 3007 3005 3003 3002 3000 2999 2997 2996 2994 2993 2991 2990 2988 2987 2985 2984 2983 2982 2981 2979 2978 2977 2977 2975 2974 2974 2973 2972 2972 2971 2970 2970 2969 2969 2968 2967 2967 2966 2966 2966 2965 2965 2965 2965 2965 2965 2964 2964 2964 2963
3055 3054 3052 3052 3051 3050 3049 3048 3047 3045 3043 3042 3041 3039 3037 3035 3033 3032 3030 3028 3026 3024 3023 3021 3020 3018 3017 3016 3014 3013 3012 3010 3008 3007 3005 3003 3002 3000 2998 2997 2995 2994 2992 2991 2989 2987 2986 2984 2983 2982 2980 2979 2977 2976 2975 2974 2973 2972 2972 2971 2970 2969 2968 2967 2967 2966 2966 2965 2965 2964 2964 2963 2963 2962 2962 2962 2961 2961 2961 2961 2961 2960 2960 2960 2960 2960
3051 3050 3049 3048 3047 3046 3045 3044 3043 3041 3040 3038 3036 3035 3033 3031 3029 3028 3026 3024 3022 3021 3019 3017 3016 3015 3013 3012 3011 3009 3007 3006 3004 3002 3001 2999 2997 2996 2994 2992 2991 2989 2987 2986 2984 2982 2981 2979 2978 2977 2975 2974 2972 2971 2970 2970 2969 2968 2967 2966 2965 2965 2964 2963 2962 2962 2962 2961 2961 2960 2959 2959 2959 2958 2958 2958 2957 2957 2957 2957 2957 2956 2956 2956 2956 2956
3048 3047 3045 3045 3044 3043 3042 3040 3038 3037 3036 3034 3032 3030 3029 3027 3025 3023 3022 3021 3019 3017 3015 3014 3012 3011 3009 3008 3007 3005 3004 3002 3000 2998 2997 2995 2993 2991 2989 2987 2986 2984 2982 2981 2979 2977 2976 2974 2973 2972 2970 2969 2968 2967 2966 2965 2964 2963 2962 2962 2961 2961 2960 2959 2958 2958 2957 2957 2956 2956 2955 2955 2955 2954 2954 2954 2953 2953 2953 2953 2952 2952 2952 2952 2952 2952
3045 3043 3042 3041 3040 3039 3038 3036 3034 3032 3031 3029 3028 3026 3024 3023 3021 3019 3018 3016 3015 3013 3012 3010 3009 3007 3006 3004 3003 3001 3000 2998 2996 2994 2992 2990 2988 2987 2985 2983 2981 2979 2978 2976 2974 2973 2971 2970 2968 2967 2966 2965 2963 2962 2962 2961 2960 2959 2958 2958 2957 2957 2956 2955 2955 2954 2953 2953 2952 2952 2951 2951 2951 2950 2950 2950 2949 2949 2949 2949 2948 2948 2948 2948 2948 2948
3041 3040 3039 3037 3036 3035 3033 3032 3030 3028 3026 3025 3023 3022 3020 3018 3017 3015 3013 3012 3011 3009 3008 3007 3005 3004 3002 3000 2999 2997 2995 2993 2992 2989 2987 2986 2984 2982 2980 2978 2977 2975 2973 2971 2970 2968 2967 2965 2964 2962 2961 2960 2959 2958 2957 2957 2956 2955 2954 2954 2953 2952 2952 2951 2951 2950 2949 2949 2948 2948 2947 2947 2947 2946 2946 2946 2945 2945 2945 2945 2945 2944 2944 2944 2944 2944
3038 3037 3035 3033 3032 3030 3029 3027 3025 3024 3022 3020 3018 3017 3016 3014 3012 3011 3009 3007 3006 3005 3004 3002 3001 3000 2998 2997 2994 2992 2991 2989 2987 2985 2983 2981 2979 2977 2976 2974 2972 2970 2968 2967 2965 2964 2962 2961 2959 2958 2957 2956 2955 2954 2953 2953 2952 2951 2950 2950 2949 2948 2948 2947 2947 2946 2945 2945 2944 2944 2943 2943 2942 2942 2942 2941 2941 2941 2941 2941 2940 2940 2940 2940 2940 2940
3034 3032 3031 3029 3027 3026 3024 3022 3021 3019 3017 3015 3014 3012 3011 3010 3008 3007 3005 3003 3002 3001 3000 2998 2997 2996 2994 2992 2990 2988 2986 2984 2982 2981 2978 2977 2975 2973 2971 2969 2968 2966 2964 2963 2961 2960 2958 2957 2955 2954 2953 2952 2952 2951 2950 2949 2948 2947 2947 2946 2945 2945 2944 2943 2943 2942 2942 2941 2940 2940 2939 2939 2938 2938 2937 2937 2937 2937 2937 2936 2936 2936 2936 2936 2936 2936
3030 3028 3027 3025 3024 3022 3020 3018 3017 3015 3013 3011 3009 3008 3007 3005 3003 3002 3001 2999 2998 2996 2995 2994 2992 2991 2990 2988 2987 2984 2982 2980 2978 2976 2974 2972 2970 2969 2967 2966 2964 2962 2961 2959 2957 2956 2955 2953 2952 2951 2950 2949 2948 2947 2947 2946 2945 2944 2943 2943 2942 2941 2941 2940 2939 2938 2938 2937 2937 2936 2935 2935 2934 2934 2933 2933 2933 2932 2932 2932 2932 2932 2932 2932 2932 2932
3026 3024 3022 3020 3019 3018 3016 3014 3012 3011 3009 3007 3005 3003 3002 3001 2999 2997 2996 2995 2994 2992 2991 2989 2988 2987 2985 2984 2982 2980 2978 2975 2973 2972 2970 2968 2966 2965 2963 2962 2961 2959 2957 2956 2954 2953 2952 2950 2949 2948 2947 2946 2945 2944 2944 2943 2942 2941 2941 2940 2939 2938 2937 2937 2936 2935 2934 2934 2933 2932 2932 2931 2931 2930 2930 2929 2929 2928 2928 2928 2928 2928 2928 2928 2928 2928
3021 3020 3018 3016 3014 3013 3012 3010 3008 3006 3005 3003 3001 2999 2997 2996 2995 2993 2991 2990 2989 2988 2987 2985 2983 2983 2981 2979 2977 2975 2974 2972 2969 2967 2966 2964 2962 2961 2960 2958 2957 2956 2955 2953 2952 2950 2949 2947 2946 2945 2944 2944 2943 2942 2941 2940 2939 2938 2938 2937 2936 2935 2934 2933 2933 2932 2931 2931 2930 2929 2928 2928 2927 2927 2926 2925 2925 2924 2924 2924 2924 2924 2924 2924 2924 2924
3017 3016 3014 3012 3010 3009 3007 3006 3004 3002 3001 2999 2997 2995 2992 2991 2990 2988 2987 2985 2984 2983 2982 2980 2979 2978 2977 2975 2973 2970 2969 2967 2966 2964 2962 2961 2959 2958 2957 2955 2954 2953 2952 2950 2949 2947 2946 2945 2944 2943 2942 2941 2940 2939 2938 2938 2937 2936 2935 2934 2933 2932 2932 2931 2930 2929 2928 2927 2927 2926 2925 2924 2924 2923 2922 2922 2921 2921 2920 2920 2920 2919 2919 2919 2920 2920
3013 3012 3010 3008 3007 3005 3003 3002 3000 2998 2996 2994 2993 2991 2988 2987 2985 2984 2983 2981 2979 2978 2978 2976 2974 2973 2972 2971 2969 2967 2964 2963 2961 2960 2959 2957 2956 2955 2954 2952 2951 2950 2949 2948 2946 2944 2943 2943 2942 2941 2940 2939 2938 2937 2936 2935 2935 2934 2932 2932 2931 2930 2928 2927 2927 2926 2925 2924 2923 2922 2922 2921 2920 2919 2919 2918 2917 2917 2916 2916 2916 2915 2915 2915 2915 2915
3009 3007 3006 3004 3003 3001 2999 2997 2996 2993 2992 2990 2988 2987 2985 2983 2982 2980 2979 2977 2975 2974 2973 2972 2970 2969 2968 2967 2965 2962 2960 2959 2957 2957 2956 2954 2953 2952 2951 2949 2947 2947 2946 2945 2944 2942 2941 2941 2940 2938 2937 2937 2936 2935 2934 2933 2932 2931 2930 2929 2928 2927 2926 2925 2924 2922 2922 2921 2920 2919 2918 2917 2917 2916 2915 2914 2914 2913 2912 2912 2912 2911 2911 2911 2911 2911
3006 3004 3002 3001 2999 2997 2995 2993 2991 2989 2987 2986 2984 2983 2981 2979 2977 2976 2975 2973 2971 2970 2969 2968 2967 2965 2964 2963 2962 2959 2957 2955 2954 2953 2953 2952 2950 2949 2948 2947 2945 2943 2943 2943 2942 2940 2939 2938 2937 2937 2936 2935 2934 2933 2932 2931 2930 2929 2927 2927 2925 2924 2923 2922 2921 2920 2918 2917 2917 2916 2915 2914 2913 2912 2911 2911 2910 2909 2908 2908 2908 2907 2907 2907 2907 2907
3002 3000 2998 2997 2995 2993 2991 2989 2987 2986 2983 2982 2980 2979 2978 2976 2974 2972 2971 2970 2968 2966 2965 2964 2963 2962 2960 2959 2958 2957 2955 2952 2950 2949 2950 2949 2947 2946 2945 2944 2942 2941 2941 2941 2939 2938 2937 2936 2935 2934 2933 2932 2932 2931 2930 2928 2927 2926 2925 2924 2922 2921 2920 2919 2917 2917 2915 2914 2913 2912 2911 2910 2909 2908 2907 2907 2906 2905 2905 2904 2904 2903 2903 2903 2902 2902
2998 2996 2994 2992 2991 2989 2987 2985 2983 2982 2980 2978 2977 2975 2974 2972 2971 2969 2967 2966 2964 2963 2962 2960 2960 2959 2957 2956 2955 2953 2952 2951 2948 2946 2947 2946 2945 2943 2943 2942 2940 2939 2938 2938 2937 2936 2935 2934 2933 2932 2931 2930 2929 2928 2927 2926 2925 2923 2922 2921 2920 2918 2917 2916 2914 2913 2912 2911 2909 2908 2907 2906 2905 2904 2903 2902 2902 2901 2900 2900 2899 2899 2899 2898 2898 2898
2994 2992 2990 2988 2986 2985 2983 2982 2980 2978 2976 2975 2973 2972 2970 2968 2967 2966 2964 2962 2961 2960 2958 2957 2956 2955 2955 2954 2952 2950 2949 2948 2946 2944 2943 2943 2942 2942 2941 2939 2938 2937 2936 2936 2935 2933 2932 2931 2931 2930 2929 2928 2927 2926 2924 2923 2922 2921 2919 2918 2917 2915 2914 2912 2911 2910 2908 2907 2906 2905 2903 2902 2901 2900 2899 2898 2897 2897 2896 2896 2895 2895 2894 2894 2894 2894
2989 2988 2986 2984 2982 2980 2979 2977 2976 2974 2972 2971 2969 2968 2967 2965 2964 2962 2961 2959 2958 2957 2955 2954 2953 2952 2952 2952 2950 2948 2947 2946 2943 2941 2940 2940 2940 2939 2938 2937 2935 2934 2934 2933 2932 2931 2930 2929 2928 2927 2927 2925 2924 2923 2922 2920 2919 2917 2916 2915 2913 2912 2910 2909 2907 2906 2905 2903 2902 2901 2899 2898 2897 2896 2895 2894 2893 2892 2892 2891 2891 2890 2890 2890 2890 2889
2986 2984 2982 2981 2979 2977 2975 2973 2972 2971 2969 2967 2966 2965 2963 2962 2961 2959 2958 2957 2955 2954 2953 2952 2951 2950 2949 2949 2947 2946 2945 2943 2941 2939 2937 2937 2937 2937 2936 2934 2933 2932 2932 2931 2930 2928 2927 2927 2926 2925 2924 2923 2922 2920 2919 2917 2916 2915 2913 2912 2910 2909 2907 2906 2904 2902 2901 2900 2898 2897 2896 2894 2893 2892 2891 2890 2889 2888 2888 2887 2887 2886 2886 2885 2885 2885
2982 2980 2978 2977 2975 2973 2972 2970 2969 2968 2967 2965 2963 2961 2960 2959 2958 2957 2955 2954 2953 2952 2950 2950 2949 2948 2947 2946 2945 2944 2942 2940 2938 2936 2935 2934 2935 2934 2933 2931 2930 2929 2929 2928 2927 2926 2925 2924 2924 2923 2922 2921 2919 2918 2916 2915 2913 2912 2910 2909 2907 2906 2904 2902 2901 2899 2897 2896 2895 2893 2892 2891 2890 2888 2887 2887 2885 2885 2884 2883 2882 2882 2882 2881 2881 2881
2978 2977 2974 2973 2972 2971 2969 2967 2966 2964 2963 2962 2960 2959 2957 2956 2955 2954 2953 2952 2951 2949 2948 2947 2947 2946 2945 2944 2943 2942 2940 2937 2935 2933 2932 2931 2932 2932 2931 2929 2927 2926 2926 2925 2924 2923 2923 2922 2921 2921 2919 2918 2917 2915 2913 2912 2911 2909 2907 2906 2904 2902 2901 2899 2897 2896 2894 2892 2891 2890 2888 2887 2886 2885 2884 2882 2882 2881 2880 2879 2879 2878 2878 2877 2877 2877
2975 2973 2972 2970 2969 2967 2966 2964 2963 2962 2960 2959 2958 2957 2955 2954 2953 2952 2951 2950 2948 2947 2946 2945 2945 2944 2943 2942 2941 2939 2937 2935 2933 2931 2930 2929 2929 2929 2928 2927 2925 2924 2923 2922 2922 2921 2920 2920 2919 2918 2917 2915 2914 2912 2911 2909 2907 2906 2904 2902 2901 2899 2897 2895 2894 2892 2891 2889 2887 2886 2885 2883 2882 2881 2880 2879 2878 2877 2876 2876 2875 2874 2874 2873 2873 2872
2972 2971 2969 2967 2966 2964 2963 2962 2960 2959 2958 2957 2956 2954 2953 2952 2951 2950 2949 2948 2947 2945 2944 2943 2943 2942 2942 2941 2939 2938 2936 2934 2932 2929 2928 2927 2927 2927 2926 2924 2922 2921 2921 2920 2919 2918 2917 2917 2916 2915 2914 2912 2911 2909 2908 2906 2905 2903 2901 2899 2897 2896 2894 2892 2890 2889 2887 2885 2884 2882 2881 2880 2878 2877 2876 2875 2874 2873 2872 2872 2871 2870 2870 2869 2869 2868
2969 2967 2966 2964 2962 2961 2960 2959 2958 2957 2956 2954 2953 2952 2951 2950 2949 2948 2947 2946 2945 2943 2942 2941 2941 2940 2939 2939 2938 2937 2935 2932 2930 2928 2926 2925 2925 2925 2924 2922 2920 2919 2918 2917 2916 2915 2914 2914 2913 2912 2911 2909 2908 2907 2905 2903 2902 2900 2898 2896 2895 2893 2891 2889 2887 2885 2883 2882 2880 2879 2877 2876 2875 2874 2872 2872 2870 2870 2869 2868 2867 2867 2866 2866 2865 2864
2966 2964 2963 2961 2960 2959 2957 2957 2956 2955 2953 2952 2951 2950 2949 2948 2947 2947 2946 2945 2943 2942 2941 2940 2939 2938 2938 2937 2937 2935 2933 2931 2928 2926 2924 2923 2922 2922 2922 2920 2918 2916 2915 2914 2913 2912 2912 2911 2911 2910 2908 2907 2905 2904 2902 2901 2899 2897 2895 2893 2892 2890 2888 2886 2884 2882 2880 2878 2877 2876 2874 2873 2871 2870 2869 2868 2867 2866 2865 2864 2863 2863 2862 2862 2861 2860
2962 2961 2960 2958 2957 2956 2955 2954 2954 2953 2952 2951 2950 2948 2947 2946 2946 2945 2944 2943 2942 2941 2940 2938 2937 2937 2936 2936 2935 2934 2932 2929 2927 2924 2922 2921 2921 2920 2920 2918 2916 2914 2912 2911 2911 2910 2909 2908 2907 2907 2906 2904 2902 2901 2899 2898 2896 2894 2892 2891 2889 2887 2885 2883 2881 2879 2877 2876 2874 2872 2871 2869 2868 2867 2865 2864 2863 2862 2862 2861 2860 2859 2858 2858 2857 2856
2960 2958 2957 2956 2955 2954 2953 2953 2952 2951 2950 2949 2948 2947 2946 2945 2944 2943 2942 2942 2941 2939 2938 2937 2936 2935 2934 2934 2933 2932 2930 2927 2925 2922 2921 2920 2919 2918 2917 2915 2913 2912 2909 2908 2907 2907 2907 2906 2905 2904 2902 2901 2900 2898 2897 2895 2893 2891 2890 2888 2886 2884 2882 2881 2878 2877 2875 2873 2871 2870 2868 2866 2865 2863 2862 2861 2860 2859 2858 2857 2857 2856 2855 2854 2853 2852
2957 2956 2955 2954 2953 2953 2952 2951 2951 2950 2949 2948 2947 2946 2945 2944 2943 2942 2941 2940 2939 2938 2937 2936 2934 2933 2932 2932 2931 2930 2928 2926 2923 2920 2919 2917 2917 2916 2915 2913 2911 2909 2907 2904 2903 2904 2904 2903 2902 2901 2899 2898 2897 2895 2894 2892 2890 2888 2887 2885 2884 2882 2880 2878 2876 2874 2872 2871 2869 2867 2866 2864 2862 2861 2859 2858 2857 2856 2855 2854 2853 2852 2851 2850 2849 2848
2956 2955 2954 2953 2952 2952 2951 2950 2949 2948 2947 2947 2946 2945 2944 2943 2942 2941 2940 2938 2937 2936 2935 2934 2933 2932 2930 2929 2928 2928 2927 2924 2921 2918 2917 2915 2914 2913 2912 2911 2909 2907 2904 2902 2900 2899 2900 2900 2900 2898 2897 2895 2894 2892 2891 2889 2887 2886 2884 2882 2881 2879 2877 2876 2874 2872 2870 2869 2867 2865 2863 2862 2860 2858 2857 2855 2854 2853 2852 2851 2850 2849 2847 2846 2845 2845
2955 2954 2953 2952 2951 2950 2950 2949 2948 2947 2947 2946 2945 2943 2942 2942 2941 2939 2938 2937 2936 2935 2933 2932 2931 2930 2929 2927 2926 2925 2924 2922 2919 2916 2914 2913 2912 2911 2910 2908 2907 2905 2903 2900 2897 2895 2894 2895 2896 2896 2894 2893 2891 2890 2888 2886 2884 2882 2881 2879 2878 2877 2875 2873 2871 2869 2868 2866 2865 2863 2861 2859 2857 2856 2854 2853 2852 2850 2849 2848 2847 2846 2844 2843 2842 2841
2954 2953 2952 2951 2951 2950 2949 2948 2947 2946 2945 2944 2943 2942 2941 2940 2939 2938 2937 2936 2934 2933 2932 2931 2930 2928 2927 2926 2924 2923 2922 2920 2917 2915 2912 2911 2910 2908 2907 2906 2904 2902 2901 2898 2896 2893 2891 2890 2891 2892 2892 2890 2889 2887 2886 2884 2882 2880 2878 2877 2875 2874 2872 2870 2868 2867 2865 2864 2862 2860 2859 2857 2855 2853 2852 2850 2849 2848 2847 2845 2844 2843 2841 2840 2839 2838
2953 2952 2951 2950 2950 2949 2948 2947 2946 2945 2944 2943 2942 2941 2940 2939 2938 2937 2935 2934 2933 2932 2931 2929 2928 2927 2925 2924 2923 2922 2920 2918 2915 2913 2911 2909 2907 2906 2905 2904 2902 2900 2899 2897 2895 2892 2890 2888 2887 2887 2887 2887 2886 2885 2883 2881 2879 2877 2876 2874 2872 2871 2869 2867 2866 2864 2862 2861 2859 2858 2856 2854 2852 2851 2849 2848 2847 2845 2844 2843 2842 2840 2838 2837 2836 2835
2952 2951 2950 2949 2949 2948 2947 2946 2945 2944 2943 2942 2941 2940 2939 2938 2937 2935 2934 2933 2932 2930 2929 2927 2926 2925 2923 2922 2921 2920 2918 2916 2914 2911 2909 2907 2905 2904 2902 2902 2900 2898 2896 2895 2893 2891 2889 2887 2885 2884 2883 2883 2883 2882 2881 2879 2877 2875 2873 2871 2869 2868 2866 2865 2863 2861 2860 2858 2857 2855 2853 2852 2850 2849 2847 2846 2844 2843 2841 2840 2839 2837 2836 2834 2833 2832
2950 2950 2949 2948 2947 2947 2946 2945 2944 2943 2942 2941 2940 2939 2938 2937 2935 2934 2933 2931 2930 2928 2927 2926 2924 2923 2922 2920 2919 2918 2917 2915 2912 2910 2907 2906 2904 2902 2901 2899 2898 2896 2894 2892 2891 2889 2887 2885 2884 2882 2880 2879 2879 2879 2878 2876 2874 2872 2871 2869 2867 2865 2863 2862 2860 2858 2857 2855 2854 2852 2851 2849 2847 2846 2845 2843 2842 2840 2839 2837 2836 2835 2833 2832 2830 2829
2949 2948 2948 2947 2946 2946 2945 2944 2943 2942 2941 2940 2939 2937 2936 2935 2934 2933 2931 2930 2928 2927 2926 2924 2923 2921 2920 2918 2917 2916 2914 2913 2911 2909 2907 2904 2902 2901 2899 2898 2897 2895 2892 2890 2888 2887 2884 2883 2881 2880 2879 2877 2875 2875 2875 2874 2872 2870 2868 2867 2865 2863 2861 2859 2857 2855 2854 2852 2851 2850 2848 2847 2845 2843 2842 2841 2839 2838 2837 2835 2834 2832 2831 2830 2828 2827
2948 2947 2947 2946 2945 2944 2943 2943 2942 2941 2940 2939 2937 2936 2935 2934 2932 2931 2930 2928 2927 2926 2924 2923 2922 2920 2918 2917 2915 2914 2912 2911 2910 2908 2906 2903 2902 2900 2898 2897 2895 2893 2891 2889 2887 2884 2882 2880 2878 2877 2876 2875 2873 2872 2871 2870 2869 2868 2866 2864 2863 2861 2859 2857 2855 2853 2851 2850 2848 2847 2845 2844 2842 2841 2839 2838 2837 2835 2834 2833 2832 2830 2829 2827 2826 2824
2947 2947 2946 2945 2944 2943 2942 2942 2941 2940 2939 2937 2936 2935 2934 2932 2931 2930 2928 2927 2925 2924 2923 2922 2920 2919 2918 2916 2914 2913 2911 2910 2908 2907 2905 2902 2901 2898 2897 2895 2893 2892 2890 2887 2885 2882 2881 2878 2876 2874 2872 2872 2871 2869 2868 2867 2865 2864 2863 2862 2861 2859 2857 2855 2853 2851 2849 2847 2845 2844 2842 2841 2839 2837 2836 2835 2834 2832 2832 2830 2829 2828 2826 2825 2823 2822
2946 2946 2945 2944 2943 2942 2942 2941 2940 2939 2937 2936 2935 2934 2932 2931 2930 2928 2927 2926 2924 2923 2922 2920 2919 2918 2917 2915 2914 2912 2910 2909 2907 2905 2903 2901 2899 2897 2895 2893 2892 2890 2888 2886 2884 2881 2879 2877 2874 2872 2870 2868 2867 2866 2866 2864 2863 2861 2859 2858 2857 2857 2855 2853 2851 2848 2846 2844 2842 2841 2840 2838 2836 2835 2833 2832 2831 2830 2828 2827 2827 2825 2824 2822 2821 2820
2945 2945 2944 2943 2942 2942 2941 2940 2939 2937 2936 2935 2934 2932 2931 2930 2928 2927 2926 2924 2923 2922 2920 2919 2918 2917 2916 2914 2913 2911 2909 2907 2906 2904 2902 2900 2898 2896 2894 2892 2890 2888 2886 2884 2882 2880 2878 2875 2873 2871 2869 2866 2864 2863 2862 2862 2861 2858 2856 2854 2853 2853 2852 2851 2849 2846 2844 2842 2840 2838 2837 2835 2833 2832 2830 2829 2828 2827 2826 2825 2823 2822 2821 2820 2818 2817
2945 2944 2943 2942 2941 2941 2940 2939 2937 2936 2935 2934 2932 2931 2929 2928 2927 2926 2924 2923 2922 2920 2919 2917 2916 2915 2914 2913 2911 2910 2908 2906 2904 2902 2900 2898 2896 2894 2892 2890 2888 2886 2884 2882 2880 2878 2877 2874 2872 2869 2867 2865 2862 2861 2860 2859 2858 2857 2854 2852 2850 2849 2849 2848 2847 2844 2842 2839 2837 2836 2834 2832 2830 2829 2827 2826 2825 2824 2823 2822 2820 2819 2818 2817 2816 2814
2944 2943 2942 2941 2940 2939 2938 2937 2936 2935 2934 2932 2931 2929 2928 2927 2925 2924 2923 2922 2920 2919 2917 2916 2915 2914 2913 2912 2910 2908 2907 2904 2902 2901 2899 2897 2895 2892 2891 2888 2886 2884 2882 2880 2878 2876 2874 2872 2870 2867 2865 2863 2861 2859 2857 2857 2856 2854 2852 2850 2847 2846 2845 2845 2844 2842 2839 2837 2835 2833 2831 2829 2827 2826 2824 2823 2822 2821 2820 2818 2817 2816 2815 2814 2813 2812
2943 2942 2941 2940 2940 2938 2937 2936 2935 2934 2932 2931 2929 2928 2926 2925 2924 2922 2921 2920 2918 2917 2916 2914 2913 2912 2911 2910 2909 2907 2906 2903 2901 2899 2897 2895 2893 2891 2889 2887 2885 2882 2880 2878 2876 2874 2872 2870 2868 2866 2863 2861 2859 2857 2855 2854 2853 2852 2850 2848 2845 2843 2841 2841 2840 2839 2837 2834 2832 2830 2828 2826 2824 2822 2821 2820 2819 2818 2817 2816 2815 2814 2812 2811 2810 2809
2942 2941 2940 2940 2938 2937 2936 2935 2934 2932 2931 2929 2928 2927 2925 2923 2922 2921 2919 2918 2917 2915 2914 2912 2911 2910 2909 2908 2907 2906 2904 2902 2900 2898 2896 2893 2891 2889 2887 2885 2883 2880 2878 2876 2873 2871 2869 2867 2866 2864 2862 2859 2857 2855 2853 2852 2850 2849 2848 2846 2844 2841 2839 2837 2836 2835 2833 2832 2830 2828 2826 2823 2821 2819 2818 2817 2816 2815 2814 2813 2812 2811 2810 2809 2807 2806
2941 2940 2939 2938 2937 2936 2935 2934 2932 2931 2930 2928 2927 2925 2924 2922 2921 2919 2917 2916 2915 2913 2912 2910 2909 2907 2907 2906 2904 2903 2902 2901 2899 2897 2895 2892 2890 2887 2885 2883 2881 2878 2876 2874 2872 2870 2867 2865 2863 2862 2860 2857 2855 2853 2852 2850 2848 2846 2845 2843 2842 2839 2837 2835 2833 2831 2829 2828 2827 2825 2823 2821 2818 2817 2815 2814 2813 2812 2811 2810 2809 2808 2807 2806 2805 2804
2940 2939 2938 2937 2936 2935 2934 2932 2931 2930 2928 2927 2925 2924 2922 2921 2919 2917 2916 2914 2913 2911 2910 2908 2907 2905 2904 2903 2902 2901 2899 2898 2897 2896 2894 2891 2888 2886 2883 2881 2879 2876 2874 2872 2870 2867 2866 2863 2861 2859 2857 2855 2853 2852 2850 2848 2845 2843 2842 2840 2838 2836 2834 2832 2831 2829 2827 2825 2823 2822 2820 2818 2816 2814 2812 2811 2810 2809 2808 2807 2806 2805 2804 2803 2802 2801
2939 2938 2937 2936 2935 2933 2932 2931 2930 2928 2927 2926 2924 2922 2921 2919 2918 2916 2914 2912 2911 2909 2908 2906 2905 2903 2902 2901 2899 2898 2896 2895 2894 2893 2892 2890 2887 2885 2882 2880 2877 2874 2872 2870 2867 2865 2863 2862 2860 2858 2856 2853 2851 2849 2847 2846 2844 2841 2839 2837 2835 2833 2831 2830 2828 2826 2824 2822 2820 2819 2817 2815 2813 2812 2810 2809 2807 2807 2806 2805 2804 2803 2802 2801 2800 2799
2938 2937 2936 2934 2933 2932 2931 2930 2928 2927 2926 2924 2923 2921 2920 2918 2916 2914 2912 2911 2909 2907 2906 2904 2903 2902 2900 2899 2897 2895 2894 2892 2891 2890 2888 2887 2885 2883 2881 2878 2875 2872 2870 2868 2865 2863 2861 2860 2858 2857 2854 2852 2849 2846 2844 2843 2841 2839 2837 2834 2832 2830 2828 2827 2825 2824 2822 2820 2818 2816 2815 2813 2811 2809 2807 2806 2805 2804 2803 2803 2802 2801 2799 2798 2797 2796
2936 2935 2934 2933 2932 2931 2929 2928 2927 2926 2924 2923 2922 2920 2918 2917 2914 2912 2911 2909 2907 2906 2904 2902 2901 2900 2898 2897 2895 2893 2892 2890 2888 2887 2885 2883 2882 2880 2877 2875 2873 2871 2868 2866 2863 2861 2859 2857 2856 2855 2853 2850 2847 2843 2841 2839 2838 2836 2834 2832 2829 2827 2825 2824 2822 2821 2819 2817 2816 2814 2813 2811 2809 2807 2806 2804 2803 2802 2802 2801 2800 2799 2797 2796 2795 2794
2935 2934 2932 2931 2930 2929 2928 2927 2925 2924 2922 2921 2920 2918 2917 2915 2913 2911 2909 2907 2906 2904 2902 2901 2899 2897 2896 2895 2893 2892 2890 2888 2886 2884 2882 2881 2878 2876 2874 2872 2870 2867 2865 2862 2860 2858 2857 2855 2854 2853 2852 2849 2845 2842 2838 2836 2834 2832 2831 2829 2827 2825 2822 2821 2820 2818 2817 2815 2814 2812 2811 2809 2808 2806 2805 2803 2801 2800 2799 2799 2798 2797 2796 2794 2793 2792
2933 2932 2931 2930 2928 2927 2926 2925 2923 2922 2921 2919 2918 2917 2915 2913 2912 2910 2908 2906 2904 2902 2901 2899 2897 2896 2894 2892 2891 2889 2888 2886 2884 2882 2880 2878 2876 2873 2871 2869 2867 2864 2861 2859 2856 2854 2852 2850 2849 2849 2849 2848 2845 2841 2837 2834 2831 2829 2827 2826 2824 2822 2820 2818 2817 2816 2815 2813 2812 2810 2809 2807 2806 2805 2803 2802 2800 2798 2797 2797 2796 2795 2794 2793 2791 2790